STARLINK-11287, 60998

Orbit data source: Space-Track

STARLINK-11287, 60998 is a payload satellite owned by SpaceX/Seattle (US) in LEO that was launched on Thu, 05 Sep 2024 UTC via an FALCON 9 launch vehicle from the Air Force Eastern Test Range (AFETR). Payloads include a variety of satellites, spacecraft, and rockets equipped with specific instruments for various scientific and technological missions. These include communications satellites like Starlink; space stations such as the ISS; scientific satellites like the Hubble; Earth observation satellites from companies like Planet Labs, Umbra, and HawkEye 360; GPS; miniature CubeSats for education and research; and military/defense satellites.

Loading next visibility...
STARLINK-11287 details
Identifier
60998, 2024-158J
Orbit
LEO
Last TLE update22 hours ago
Origin
Flag of USSpaceX/Seattle (US)
ManufacturerSpaceX/Seattle
MissionOperational spacecraft
Bus & MotorSTARLINK V2M, Unknown motor
Mass730 kg wet, ~700 kg dry
Launch date (UTC)
2024-09-05 (4 months ago)
Launch vehicle
FALCON 9
Launch site
Air Force Eastern Test Range (AFETR)
Object type
Payload
Rocket body
Debris
Shape & HBRUnknown
Radar Cross SectionLarge (>1 m²)

Expand to show TLE details & history

TLE from 22 hours ago
0 STARLINK-11287
1 60998U 24158J   24355.60094839  .00002710  00000-0  27226-4 0  9993
2 60998  53.1598 310.5914 0000990 108.1840 251.9286 15.69704519 17860
Epoch: 2024-12-20T14:25Z
Definitive object data (Epoch: 2024-12-20T14:25:21.94Z)
Latitude-0.00002°
Longitude4.58584°
Altitude360.864 km
Speed7.694 km/s
True Right ascension20h 42m 21s
True Declination0° 00' 00"
Sunlit
Object was in daylight at TLE epoch
Visualization TLE readout
Latitude-5.89593°
Longitude-175.56039°
Altitude361.432 km
Speed7.693 km/s
Apparent Right ascension05h 34m 02s
Apparent Declination-45° 31' 53"
Sunlit
Object is in full shadow
Visualization observer readout
Local Sidereal Time11:38:25
Azimuth232.431° WSW
Elevation-27.915°
Doppler factor1
Orbital elements
Apogee altitude360.67 km
Perigee altitude359.336 km
Semi-major axis6,738.14 km
Eccentricity0.000099
Inclination53.1598°
RAAN310.5914°
Arg. of periapsis108.184°
True anomaly251.91782°
Mean anomaly251.9286°
Eccentric anomaly251.92321°
Mean motion3.92404 °/min
BSTAR0.000027226
Orbital period91.74 mins
Loading maneuver chart data...
Loading historical data...
Loading historical data...
Loading historical data...
Loading historical data...
Loading historical data...
Loading historical data...
Loading historical data...

STARLINK-11287 Visibility forecast

Observer location: undefined°, undefined

Span
Click to sort rows by Start time (UTC) header in descending order
Start Az.
Max El. time (UTC)
Max El. Az.
Max El.
End time (UTC)
End Az.
4 mins2024-12-22 00:15:35.374Z265.666° W2024-12-22 00:17:35.374Z349.553° N30.849°2024-12-22 00:19:35.374Z34.288° NE
4 mins2024-12-22 06:40:35.374Z294.85° NW2024-12-22 06:41:35.374Z254.959° W40.8°2024-12-22 06:44:35.374Z140.967° SSE
|